Regional Weather Roundup
Issued by NWS

Home | Current Version | Previous Version | Text Only | Print | Product List | Glossary On
Versions: 1 2 3 4 5 6 7 8 9 10 11 12 13 14 15 16 17 18 19 20 21 22 23 24 25 26 27 28 29 30 31 32 33 34 35 36 37 38 39 40 41 42 43 44 45 46 47 48 49 50
315
ASUS43 KTOP 201908
RWRKS

WEATHER ROUNDUP FOR KANSAS
NATIONAL WEATHER SERVICE GOODLAND KS
200 PM CDT FRI APR 20 2018

NOTE:  "FAIR" INDICATES FEW OR NO CLOUDS BELOW 12,000 FEET WITH NO
SIGNIFICANT WEATHER AND/OR OBSTRUCTIONS TO VISIBILITY.

KSZ001>006-013>018-027>032-041>047-202000-
NORTHWEST KANSAS

CITY           SKY/WX    TMP DP  RH WIND       PRES   REMARKS
GOODLAND       LGT RAIN  44  35  70 SE16G26   30.10F
HAYS           PTSUNNY   57  32  38 SE24      30.16F
HILL CITY      CLOUDY    53  31  42 S14G23    30.19R
RUSSELL        CLOUDY    58  34  40 SE20G30   30.17F
$$

KSZ061>065-074>080-084>089-202000-
SOUTHWEST KANSAS

CITY           SKY/WX    TMP DP  RH WIND       PRES   REMARKS
DODGE CITY     CLOUDY    57  30  35 SE25G36   30.10F
ELKHART        LGT RAIN  46  40  80 SE16G25   30.03F
GARDEN CITY    CLOUDY    45  36  70 E5        30.13S
GREAT BEND     CLOUDY    61  34  36 SE28      30.15F
LIBERAL        CLOUDY    55  32  41 SE18G24   30.06F
PRATT          CLOUDY    59  32  36 SE23G30   30.16F
$$

KSZ066>073-081>083-090>101-202000-
SOUTHEAST KANSAS

CITY           SKY/WX    TMP DP  RH WIND       PRES   REMARKS
CHANUTE        CLOUDY    63  30  28 E17       30.31F
COFFEYVILLE    SUNNY     63  32  31 SE12G22   30.29F
HUTCHINSON     MOSUNNY   64  33  31 SE22G31   30.20F
MEDICINE LODGE   N/A     62  35  36 SE20G41   30.15F
NEWTON         CLOUDY    60  32  34 SE22      30.24F
PARSONS        CLOUDY    63  31  30 SE8       30.31F
WICHITA INTL   CLOUDY    62  34  35 SE20      30.22F
WICHITA JABRA  MOSUNNY   64  31  28 SE18G28   30.23F
WICHITA MCCONL CLOUDY    61  30  31 SE22G29   30.22F
WINFIELD       MOSUNNY   63  33  32 E12G28    30.24F
$$

KSZ007>012-019>026-033>040-048>060-102>105-202000-
NORTHEAST KANSAS

CITY           SKY/WX    TMP DP  RH WIND       PRES   REMARKS
CONCORDIA      CLOUDY    60  30  32 E14G33    30.24F
EMPORIA        CLOUDY    62  32  32 SE18G28   30.28F
LAWRENCE       MOSUNNY   62  28  27 E14G29    30.35F
MANHATTAN      MOSUNNY   63  30  28 SE12G24   30.28F
MARYSVILLE     MOSUNNY   61  32  33 SE14G20   30.29F
OLATHE IND     MOSUNNY   60  28  29 E13G23    30.36F
OLATHE EXE     CLOUDY    59  29  31 E12G21    30.35F
SALINA         PTSUNNY   64  34  32 SE20G25   30.23F
TOPEKA BILLARD MOSUNNY   62  31  31 E18G26    30.32F
TOPEKA FORBES  MOSUNNY   64  31  28 SE14G23   30.31F
$$




USA.gov is the U.S. government's official web portal to all federal, state and local government web resources and services.